[[{"header":{"parameterUnit":"m.s-1","parameterCategory":1,"la1":30.2991,"la2":30.254,"lo1":-89.0895,"lo2":-89.0444,"dy":0.0017,"dx":0.0017,"nx":28,"ny":28,"refTime":"2025-04-29T03:00:00:Z","depth":0,"parameterNumber":2,"parameterNumberName":"U-component_of_WINDS"},"data":[0,0,0,0,0,0,0,0,0,0,0,0,0,0,0,0,0,0,0,0,0,0,0,0,0,0,0,0,0,0,0,0,0,0,0,0,0,0,0,0,0,0,0,0,0,0,0,0,0,0,0,0,0,0,0,0,0,0,-3.4226,-3.4226,0,-3.4237,-3.4237,-3.4237,-3.4198,-3.4197,-3.4196,-3.4195,-3.4205,-3.4206,-3.4207,0,0,0,0,0,0,0,0,0,0,0,0,0,-3.4173,-3.4174,-3.4226,-3.4226,-3.4226,-3.4237,-3.4237,-3.4237,-3.4198,-3.4197,-3.4196,-3.4194,-3.4204,-3.4206,-3.4207,0,0,0,0,0,0,0,0,0,0,0,0,0,-3.4191,-3.4174,-3.4226,-3.4208,-3.4207,-3.4237,-3.4237,-3.4237,-3.4199,-3.4197,-3.4195,-3.4194,-3.4204,-3.4205,-3.4207,-3.4254,0,0,-3.4214,-3.4214,0,0,0,0,0,0,0,0,-3.419,-3.4193,-3.4211,-3.421,-3.4208,-3.4214,-3.4221,-3.4243,-3.4199,-3.4202,-3.4195,-3.4193,-3.4209,-3.4211,-3.4216,-3.4255,-3.4255,-3.4214,-3.4215,-3.4216,-3.4216,0,0,0,0,0,0,0,-3.4189,-3.4192,-3.423,-3.4211,-3.421,-3.42,-3.4201,-3.4225,-3.4215,-3.4201,-3.4199,-3.4201,-3.4208,-3.4214,-3.4216,-3.4255,-3.4214,-3.4215,-3.4217,-3.4217,-3.4332,-3.4334,0,0,0,0,0,0,-3.419,-3.4191,-3.423,-3.423,-3.4195,-3.4202,-3.4203,-3.4214,-3.4215,-3.4213,-3.4202,-3.4199,-3.4212,-3.4214,-3.4216,-3.427,-3.4216,-3.4218,-3.4219,-3.433,-3.4333,-3.4335,0,0,0,0,0,0,-3.4189,-3.4194,-3.4229,-3.421,-3.4214,-3.4205,-3.4218,-3.4215,-3.4221,-3.4215,-3.4213,-3.421,-3.4211,-3.4214,-3.4245,-3.427,-3.4218,-3.422,-3.4328,-3.4331,-3.4334,-3.4379,0,0,0,0,0,0,-3.4187,-3.4193,-3.4211,-3.4211,-3.4215,-3.4258,-3.4219,-3.4217,-3.4225,-3.4221,-3.4222,-3.4221,-3.4209,-3.4242,-3.4247,-3.4272,-3.4222,-3.4326,-3.433,-3.4333,-3.4375,-3.4383,-3.4389,0,0,0,0,0,-3.4186,-3.4223,-3.4212,-3.4217,-3.4237,-3.4259,-3.4262,-3.4248,-3.4227,-3.4245,-3.4241,-3.4221,-3.4267,-3.4246,-3.4251,-3.4277,-3.4324,-3.4329,-3.4333,-3.4372,-3.4381,-3.4389,0,0,0,0,0,0,-3.4225,-3.4222,-3.421,-3.4249,-3.4255,-3.4253,-3.4274,-3.4259,-3.427,-3.4266,-3.4249,-3.4249,-3.4284,-3.4284,-3.426,-3.4322,-3.4292,-3.4297,-3.432,-3.4329,-3.4336,-3.4334,-3.4223,0,0,0,0,0,-3.4238,-3.4257,-3.4254,-3.4288,-3.4292,-3.4283,-3.4292,-3.4282,-3.4287,-3.4289,-3.4287,-3.4293,-3.4309,-3.4319,-3.4334,-3.4376,-3.4375,-3.4396,-3.4404,-3.441,-3.4413,-3.4435,-3.4444,-3.4349,-3.4348,-3.4348,0,0,-3.4265,-3.4266,-3.4279,-3.4296,-3.4299,-3.4319,-3.4285,-3.4307,-3.4321,-3.4292,-3.4321,-3.4321,-3.4326,-3.4363,-3.4379,-3.4364,-3.444,-3.4415,-3.442,-3.442,-3.4441,-3.445,-3.4458,-3.4351,-3.4351,-3.435,0,0,-3.4324,-3.4328,-3.4356,-3.4361,-3.4367,-3.4361,-3.4368,-3.4369,-3.4368,-3.4398,-3.4376,-3.4393,-3.4421,-3.4425,-3.4431,-3.4495,-3.4477,-3.4501,-3.4537,-3.4559,-3.4566,-3.4573,-3.4594,-3.4602,-3.4505,-3.4505,-3.4505,0,-3.4357,-3.4386,-3.4373,-3.4397,-3.4404,-3.4381,-3.4409,-3.4414,-3.4425,-3.4431,-3.4414,-3.4449,-3.4451,-3.4488,-3.4504,-3.451,-3.4517,-3.4499,-3.4566,-3.4573,-3.4579,-3.4599,-3.4607,-3.4508,-3.4508,-3.4507,-3.4507,0,-3.4425,-3.4446,-3.4468,-3.4479,-3.449,-3.4516,-3.4507,-3.452,-3.4509,-3.4505,-3.4536,-3.4538,-3.4552,-3.4561,-3.4551,-3.4597,-3.4588,-3.4569,-3.4538,-3.4591,-3.4609,-3.4617,-3.4512,-3.4511,-3.451,-3.4509,0,0,-3.4506,-3.4511,-3.452,-3.4524,-3.4531,-3.4546,-3.4572,-3.4586,-3.4597,-3.4606,-3.4626,-3.4652,-3.4635,-3.4642,-3.4632,-3.4651,-3.47,-3.463,-3.463,-3.4642,-3.4751,-3.4763,-3.4772,-3.469,-3.4691,-3.4692,-3.4749,0,-3.4563,-3.4606,-3.4596,-3.4639,-3.4658,-3.4637,-3.4659,-3.4665,-3.4663,-3.4678,-3.4676,-3.4693,-3.4671,-3.4675,-3.4693,-3.469,-3.4721,-3.4686,-3.4707,-3.4708,-3.4703,-3.4782,-3.4794,-3.4848,-3.4757,-3.4758,-3.4759,0,-3.4634,-3.4646,-3.4691,-3.4694,-3.4702,-3.4722,-3.4735,-3.475,-3.4757,-3.4754,-3.4763,-3.475,-3.4775,-3.4747,-3.4781,-3.4758,-3.4766,-3.4766,-3.4768,-3.4767,-3.4735,-3.4781,-3.4865,-3.4872,-3.4771,-3.477,-3.4769,0,-3.4686,-3.4714,-3.4744,-3.475,-3.4755,-3.477,-3.4773,-3.4778,-3.4788,-3.48,-3.4805,-3.482,-3.4827,-3.4839,-3.483,-3.4811,-3.4866,-3.4836,-3.4863,-3.4863,-3.4873,-3.4872,-3.4957,-3.4883,-3.4882,-3.4882,-3.4882,0,-3.4749,-3.4777,-3.4768,-3.4786,-3.4817,-3.4807,-3.4837,-3.4838,-3.4843,-3.4861,-3.4845,-3.4862,-3.4851,-3.4867,-3.4861,-3.4889,-3.4893,-3.4891,-3.4888,-3.4891,-3.4891,-3.4894,-3.4889,-3.4884,-3.4884,-3.4884,-3.4883,0,-3.4811,-3.4807,-3.4838,-3.4842,-3.4844,-3.4866,-3.4869,-3.4886,-3.4883,-3.4906,-3.4911,-3.4907,-3.4926,-3.4919,-3.4939,-3.4935,-3.4971,-3.4964,-3.4968,-3.4966,-3.4992,-3.4989,-3.508,-3.5091,-3.5011,-3.5012,-3.5013,0,-3.4851,-3.4872,-3.4878,-3.4889,-3.4893,-3.4912,-3.4922,-3.4913,-3.4924,-3.4935,-3.495,-3.4968,-3.4981,-3.5011,-3.501,-3.5025,-3.5018,-3.5049,-3.502,-3.5022,-3.5016,-3.5014,-3.5015,-3.5054,-3.5055,-3.5055,-3.5056,0,-3.492,-3.4917,-3.4933,-3.4948,-3.4961,-3.4972,-3.4982,-3.4992,-3.4984,-3.4997,-3.5016,-3.5027,-3.5047,-3.5064,-3.5078,-3.5081,-3.5067,-3.5066,-3.5072,-3.5074,-3.5074,-3.5073,-3.4982,-3.5063,-3.5062,-3.5062,-3.5061,-3.5061,-3.4971,-3.4989,-3.4996,-3.5014,-3.5021,-3.5031,-3.5047,-3.5047,-3.5063,-3.5079,-3.5073,-3.5095,-3.5102,-3.512,-3.5125,-3.5142,-3.5129,-3.5139,-3.5141,-3.5143,-3.5146,-3.5074,-3.5144,-3.5144,-3.5144,-3.5144,-3.5144,0,-3.5038,-3.5042,-3.5059,-3.5074,-3.5088,-3.5076,-3.5086,-3.5098,-3.5118,-3.5126,-3.514,-3.5162,-3.5179,-3.518,-3.5196,-3.5209,-3.5203,-3.5213,-3.5211,-3.5211,-3.5157,-3.5148,-3.5218,-3.5218,-3.5218,-3.5218,-3.5218,-3.5218,-3.5075,-3.5104,-3.5102,-3.5135,-3.5138,-3.516,-3.5167,-3.5176,-3.5183,-3.5208,-3.5222,-3.5223,-3.5229,-3.5245,-3.526,-3.526,-3.5265,-3.5278,-3.5275,-3.5223,-3.5215,-3.5208,-3.52,-3.528,-3.528,-3.5328,-3.5328,-3.5329]},{"header":{"parameterUnit":"m.s-1","parameterCategory":1,"la1":30.2991,"la2":30.254,"lo1":-89.0895,"lo2":-89.0444,"dy":0.0017,"dx":0.0017,"nx":28,"ny":28,"refTime":"2025-04-29T03:00:00:Z","depth":0,"parameterNumber":3,"parameterNumberName":"V-component_of_WINDS"},"data":[0,0,0,0,0,0,0,0,0,0,0,0,0,0,0,0,0,0,0,0,0,0,0,0,0,0,0,0,0,0,0,0,0,0,0,0,0,0,0,0,0,0,0,0,0,0,0,0,0,0,0,0,0,0,0,0,0,0,4.057,4.0571,0,4.0656,4.0657,4.0658,4.0678,4.0677,4.0677,4.0676,4.0758,4.076,4.0763,0,0,0,0,0,0,0,0,0,0,0,0,0,4.0418,4.0421,4.057,4.0571,4.0572,4.0656,4.0657,4.0658,4.0678,4.0677,4.0677,4.0676,4.0757,4.076,4.0763,0,0,0,0,0,0,0,0,0,0,0,0,0,4.0492,4.0421,4.057,4.0592,4.0595,4.0656,4.0657,4.0658,4.0678,4.0677,4.0677,4.0676,4.0756,4.076,4.0764,4.0806,0,0,4.0776,4.0778,0,0,0,0,0,0,0,0,4.0487,4.0497,4.0588,4.0591,4.0594,4.0656,4.0633,4.0708,4.0678,4.0647,4.0676,4.0675,4.0724,4.0731,4.0748,4.0809,4.0813,4.0776,4.0779,4.0781,4.0782,0,0,0,0,0,0,0,4.0482,4.0494,4.0604,4.0589,4.0593,4.0596,4.0606,4.0647,4.0689,4.0649,4.0651,4.0661,4.0726,4.0744,4.075,4.0814,4.0776,4.078,4.0782,4.0784,4.0915,4.0915,0,0,0,0,0,0,4.0474,4.0489,4.0601,4.0606,4.0538,4.06,4.0611,4.0637,4.0688,4.0696,4.0662,4.0662,4.0738,4.0746,4.0753,4.0807,4.0781,4.0784,4.0787,4.0913,4.0915,4.0916,0,0,0,0,0,0,4.0471,4.0484,4.0598,4.0548,4.0563,4.0603,4.0632,4.0639,4.0658,4.0698,4.0705,4.0674,4.0738,4.0748,4.0793,4.081,4.0786,4.079,4.0912,4.0914,4.0915,4.0913,0,0,0,0,0,0,4.0466,4.0483,4.05,4.0549,4.0566,4.0638,4.0634,4.0641,4.0666,4.0666,4.0711,4.0718,4.0738,4.0787,4.0797,4.0815,4.0793,4.0911,4.0913,4.0915,4.0912,4.0914,4.0916,0,0,0,0,0,4.0461,4.0494,4.0501,4.0514,4.0589,4.0639,4.0648,4.0672,4.0667,4.0684,4.071,4.0716,4.0806,4.0792,4.0803,4.0822,4.091,4.0912,4.0915,4.0911,4.0914,4.0916,0,0,0,0,0,0,4.0444,4.0501,4.0509,4.056,4.0595,4.0642,4.0664,4.0675,4.071,4.0709,4.0735,4.0745,4.0789,4.081,4.0793,4.0866,4.0858,4.0862,4.0851,4.0854,4.0856,4.085,4.0796,0,0,0,0,0,4.0447,4.0485,4.0531,4.0571,4.0589,4.0624,4.0646,4.0662,4.0698,4.0712,4.0741,4.0774,4.081,4.0833,4.0868,4.0915,4.0925,4.0933,4.0936,4.0937,4.0941,4.0968,4.0972,4.0924,4.0924,4.0923,0,0,4.0452,4.0488,4.0509,4.0569,4.0598,4.0635,4.0636,4.0674,4.0701,4.0717,4.0763,4.0785,4.0824,4.0871,4.0892,4.0889,4.0957,4.094,4.0942,4.0944,4.0971,4.0975,4.0979,4.0925,4.0925,4.0925,0,0,4.048,4.0511,4.0549,4.0578,4.0623,4.0646,4.0655,4.0701,4.0718,4.0764,4.0777,4.0809,4.087,4.0897,4.0919,4.0959,4.0966,4.0969,4.0981,4.1007,4.1011,4.1014,4.1029,4.1033,4.0973,4.0973,4.0973,0,4.048,4.0539,4.0566,4.0605,4.0631,4.0649,4.0687,4.0713,4.0766,4.0782,4.0778,4.0857,4.0883,4.0937,4.0947,4.0964,4.0974,4.0964,4.1008,4.1012,4.1016,4.103,4.1035,4.0973,4.0973,4.0973,4.0973,0,4.0537,4.0577,4.0601,4.0655,4.0683,4.0721,4.0752,4.0777,4.0791,4.0814,4.0861,4.0894,4.0937,4.0951,4.0963,4.1006,4.1003,4.1003,4.0996,4.102,4.1034,4.1039,4.0973,4.0973,4.0973,4.0973,0,0,4.0556,4.0626,4.0635,4.066,4.071,4.0741,4.0779,4.0823,4.0844,4.0879,4.0912,4.0963,4.0965,4.099,4.1005,4.1028,4.1057,4.1025,4.1027,4.103,4.1107,4.1107,4.1112,4.1063,4.1064,4.1065,4.1104,0,4.0592,4.0663,4.069,4.0747,4.0785,4.0803,4.0836,4.087,4.0893,4.0926,4.095,4.0986,4.0985,4.1,4.1023,4.1049,4.1073,4.1046,4.1092,4.1093,4.1082,4.112,4.1119,4.1154,4.1109,4.111,4.1111,0,4.0642,4.0681,4.0744,4.0791,4.0808,4.0837,4.088,4.0912,4.0951,4.0965,4.0994,4.1008,4.1047,4.1038,4.1091,4.1073,4.1093,4.1108,4.111,4.1115,4.1103,4.1126,4.1166,4.1172,4.1119,4.1119,4.1118,0,4.0651,4.0719,4.0766,4.0786,4.0842,4.0863,4.0887,4.0925,4.095,4.0986,4.1003,4.1042,4.1064,4.1094,4.1118,4.1108,4.1169,4.1162,4.1182,4.1181,4.1194,4.1193,4.1238,4.1206,4.1206,4.1206,4.1206,0,4.0688,4.0725,4.0771,4.08,4.0842,4.0871,4.0911,4.0936,4.0969,4.1002,4.1019,4.1049,4.1079,4.1112,4.1131,4.1173,4.1182,4.1194,4.1199,4.1193,4.1191,4.1206,4.1204,4.1207,4.1207,4.1207,4.1207,0,4.0705,4.0737,4.079,4.0839,4.0853,4.0882,4.0923,4.0951,4.0974,4.1015,4.1026,4.1063,4.1103,4.113,4.118,4.1193,4.1238,4.1242,4.1226,4.1229,4.1248,4.1245,4.1304,4.1314,4.1275,4.1275,4.1275,0,4.0727,4.0757,4.081,4.0835,4.086,4.0898,4.0924,4.0953,4.098,4.1026,4.1048,4.109,4.1125,4.1187,4.1217,4.1256,4.1261,4.1279,4.1267,4.126,4.1262,4.126,4.1263,4.1281,4.1281,4.1281,4.1281,0,4.0762,4.0777,4.0816,4.086,4.0892,4.0928,4.0963,4.0981,4.1016,4.1045,4.1088,4.1115,4.1168,4.1208,4.125,4.1273,4.1283,4.1285,4.1292,4.1286,4.1276,4.1283,4.1232,4.1284,4.1283,4.1283,4.1283,4.1283,4.0783,4.0811,4.0853,4.0896,4.0926,4.0959,4.0988,4.1016,4.1053,4.11,4.1114,4.1158,4.1196,4.1253,4.1276,4.131,4.1308,4.1318,4.1321,4.1323,4.1323,4.1271,4.1317,4.1317,4.1317,4.1317,4.1317,0,4.0819,4.0848,4.0887,4.0938,4.0971,4.098,4.102,4.1047,4.1086,4.1121,4.1156,4.1204,4.1244,4.1278,4.1318,4.1339,4.1345,4.1349,4.1347,4.1353,4.1322,4.1312,4.1344,4.1344,4.1344,4.1344,4.1344,4.1344,4.0843,4.089,4.091,4.0972,4.1,4.1046,4.1068,4.1098,4.1126,4.1181,4.1215,4.1237,4.1271,4.1315,4.1351,4.136,4.1374,4.1377,4.1387,4.1358,4.1355,4.1352,4.1343,4.138,4.138,4.1415,4.1415,4.1416]}]]